Weather History for Capo Bellavista, Italy

Change the Weather History Date:

Wednesday, October 3, 2012

  Actual Average (LIED) Record (LIED)
Temperature  
Mean Temperature 75 °F -  
Max Temperature 83 °F 70 °F 87 °F (2003)
Min Temperature 66 °F 59 °F 53 °F (1996)
Cooling Degree Days 10    
Growing Degree Days 25 (Base 50)    
Moisture  
Dew Point 62 °F    
Average Humidity 71    
Maximum Humidity 88    
Minimum Humidity 58    
Precipitation  
Precipitation 0.00 in 0.09 in - ()
Sea Level Pressure  
Sea Level Pressure 30.10 in    
Wind  
Wind Speed 9 mph ()    
Max Wind Speed 15 mph    
Max Gust Speed -    
Visibility 7.9 miles    
Events      
Averages and records for this station are not official NWS values.
T = Trace of Precipitation, MM = Missing Value Source: Averaged Metar Reports

Daily Weather History Graph

Daily Weather History Graph

Search for Another Location

Airport:

Trip Planner

Search our weather history database for the weather conditions in past years. The results will help you decide how hot, cold, wet, or windy it might be!

Date:

Astronomy

Oct. 03, 2012 Rise Set
Actual Time 7:19 AM CEST 6:59 PM CEST
Civil Twilight 6:52 AM CEST 7:26 PM CEST
Nautical Twilight 6:21 AM CEST 7:58 PM CEST
Astronomical Twilight 5:49 AM CEST 8:29 PM CEST
Moon 8:41 PM CEST (10/3) 10:27 AM CEST (10/3)
Length of Visible Light 12h 34m
Length of Day
11h 40m
Waning Gibbous, 90% of the Moon is Illuminated
Oct 3
Waning Gibbous
Oct 8
Last Quarter
Oct 15
New
Oct 22
First Quarter
Oct 29
Full

Hourly Weather History & Observations

Time (CEST) Temp. Heat Index Dew Point Humidity Pressure Visibility Wind Dir Wind Speed Gust Speed Precip Events Conditions
12:55 AM 71.6 °F - 59.0 °F 64% 30.09 in - NW 13.8 mph - N/A   Clear
1:55 AM 68.0 °F - 59.0 °F 73% 30.09 in - WNW 15.0 mph - N/A   Clear
2:00 AM 68 °F - 58 °F 63% 30.11 in 12 mi WNW 15.0 mph - -  
2:55 AM 68.0 °F - 59.0 °F 73% 30.09 in - NW 13.8 mph - N/A   Clear
3:55 AM 68.0 °F - 57.2 °F 68% 30.09 in - NW 15.0 mph - N/A   Clear
4:55 AM 68.0 °F - 55.4 °F 64% 30.09 in - WNW 11.5 mph - N/A   Clear
6:55 AM 68.0 °F - 57.2 °F 68% 30.09 in - WNW 12.7 mph - N/A   Clear
7:55 AM 68.0 °F - 57.2 °F 68% 30.09 in - WNW 10.4 mph - N/A   Clear
8:00 AM 67 °F - 56 °F 60% 30.10 in 12 mi WNW 10.4 mph - -   Scattered Clouds
8:55 AM 68.0 °F - 57.2 °F 68% 30.09 in - WNW 10.4 mph - N/A   Clear
9:55 AM 69.8 °F - 59.0 °F 68% 30.09 in - West 4.6 mph - N/A   Clear
10:55 AM 73.4 °F - 64.4 °F 73% 30.12 in 6.2 mi South 5.8 mph - N/A   Partly Cloudy
11:55 AM 80.6 °F 83.2 °F 68.0 °F 65% 30.12 in 6.2 mi SE 3.5 mph - N/A   Partly Cloudy
12:55 PM 80.6 °F 82.7 °F 66.2 °F 61% 30.12 in 6.2 mi SSE 2.3 mph - N/A   Partly Cloudy
1:55 PM 77.0 °F - 66.2 °F 69% 30.12 in 6.2 mi SSE 4.6 mph - N/A   Partly Cloudy
2:00 PM 78 °F - 66 °F 58% 30.13 in 12 mi SSE 4.6 mph - -   Scattered Clouds
2:55 PM 77.0 °F - 66.2 °F 69% 30.12 in 6.2 mi SSE 4.6 mph - N/A   Partly Cloudy
3:55 PM 75.2 °F - 66.2 °F 73% 30.12 in 6.2 mi East 3.5 mph - N/A   Partly Cloudy
4:55 PM 77.0 °F - 66.2 °F 69% 30.12 in 6.2 mi South 3.5 mph - N/A   Partly Cloudy
5:55 PM 77.0 °F - 66.2 °F 69% 30.09 in 6.2 mi South 4.6 mph - N/A   Partly Cloudy
6:55 PM 73.4 °F - 64.4 °F 73% 30.09 in 6.2 mi South 6.9 mph - N/A   Partly Cloudy
7:55 PM 69.8 °F - 64.4 °F 83% 30.09 in 6.2 mi SSW 5.8 mph - N/A   Partly Cloudy
8:00 PM 71 °F - 64 °F 73% 30.11 in 12 mi SSW 5.8 mph - -   Scattered Clouds
8:55 PM 69.8 °F - 62.6 °F 78% 30.09 in - West 4.6 mph - N/A   Clear
9:55 PM 68.0 °F - 64.4 °F 88% 30.09 in - West 4.6 mph - N/A   Clear
10:55 PM 68.0 °F - 64.4 °F 88% 30.09 in - NW 5.8 mph - N/A   Clear
11:55 PM 66.2 °F - 62.6 °F 88% 30.09 in - NW 10.4 mph - N/A   Clear